User: anonymous   Login
Location: Fort Wayne
(41.1310°N, 85.1290°W)
Time: 16:45:43
(UTC-04:00)
Language:

CZ-2C R/B - Orbit

View from above orbital plane
View from above orbital plane
View from above satellite
View from above satellite

Ground track
Ground track

The orbit data is extracted from the following two-line orbital elements,

1 36089U 09061B   15090.09706792  .00000546  00000-0  14805-3 0  9993
2 36089 098.0778 116.4589 0082673 017.8161 045.2619 14.49398445284496
Epoch (UTC): 31 March 2015 02:19:46
Eccentricity: 0.0082673
inclination: 98.0778°
perigee height: 669 km
apogee height: 786 km
right ascension of ascending node: 116.4589°
argument of perigee: 17.8161°
revolutions per day: 14.49398445
mean anomaly at epoch: 45.2619°
orbit number at epoch: 28449

The dashed part of the orbit path shows where the satellite is in the earth's shadow,  

DLR